TimeEST,TemperatureF,Dew PointF,Humidity,Sea Level PressureIn,VisibilityMPH,Wind Direction,Wind SpeedMPH,Gust SpeedMPH,PrecipitationIn,Events,Conditions,WindDirDegrees,DateUTC
12:53 AM,42.1,28.9,60,29.94,10.0,West,6.9,-,N/A,,Mostly Cloudy,280,2013-03-02 05:53:00
1:53 AM,41.0,30.0,65,29.94,10.0,WNW,3.5,-,N/A,,Overcast,290,2013-03-02 06:53:00
2:53 AM,37.9,28.9,70,29.92,10.0,West,4.6,-,N/A,,Partly Cloudy,260,2013-03-02 07:53:00
3:53 AM,36.0,30.0,79,29.91,10.0,WSW,5.8,-,N/A,,Scattered Clouds,240,2013-03-02 08:53:00
4:53 AM,35.1,28.9,78,29.91,10.0,SW,4.6,-,N/A,,Clear,220,2013-03-02 09:53:00
5:53 AM,34.0,28.9,82,29.91,10.0,SW,3.5,-,N/A,,Clear,220,2013-03-02 10:53:00
6:53 AM,33.1,28.9,85,29.91,10.0,SSW,4.6,-,N/A,,Clear,210,2013-03-02 11:53:00
7:53 AM,35.1,30.0,82,29.91,10.0,SW,5.8,-,N/A,,Clear,220,2013-03-02 12:53:00
8:53 AM,41.0,30.9,67,29.91,10.0,West,10.4,-,N/A,,Clear,260,2013-03-02 13:53:00
9:53 AM,44.1,32.0,63,29.90,10.0,WSW,9.2,-,N/A,,Clear,250,2013-03-02 14:53:00
10:26 AM,44.6,32.0,61,29.90,10.0,West,9.2,-,N/A,,Mostly Cloudy,280,2013-03-02 15:26:00
10:50 AM,44.6,32.0,61,29.90,10.0,WNW,8.1,-,N/A,,Overcast,290,2013-03-02 15:50:00
10:53 AM,45.0,32.0,60,29.90,10.0,West,9.2,-,N/A,,Overcast,260,2013-03-02 15:53:00
11:53 AM,45.0,32.0,60,29.89,10.0,West,8.1,-,N/A,,Overcast,270,2013-03-02 16:53:00
12:53 PM,45.0,32.0,60,29.88,10.0,West,12.7,16.1,N/A,,Overcast,280,2013-03-02 17:53:00
1:53 PM,46.0,33.1,61,29.87,10.0,West,11.5,19.6,N/A,,Overcast,270,2013-03-02 18:53:00
2:53 PM,46.0,33.1,61,29.87,10.0,West,15.0,23.0,N/A,,Overcast,270,2013-03-02 19:53:00
3:53 PM,45.0,34.0,65,29.87,10.0,West,13.8,-,N/A,,Overcast,270,2013-03-02 20:53:00
4:03 PM,44.6,33.8,66,29.87,10.0,West,11.5,-,N/A,,Overcast,280,2013-03-02 21:03:00
4:53 PM,46.0,35.1,66,29.87,10.0,WSW,11.5,-,N/A,,Overcast,250,2013-03-02 21:53:00
6:53 PM,44.1,34.0,68,29.91,10.0,West,8.1,-,N/A,,Mostly Cloudy,270,2013-03-02 23:53:00
8:53 PM,42.1,35.1,76,29.94,10.0,West,3.5,-,0.00,,Overcast,280,2013-03-03 01:53:00
9:53 PM,42.1,34.0,73,29.94,10.0,West,8.1,-,N/A,,Overcast,270,2013-03-03 02:53:00
10:53 PM,42.1,28.9,60,29.94,10.0,West,10.4,-,N/A,,Overcast,280,2013-03-03 03:53:00
11:53 PM,39.0,27.0,62,29.94,10.0,West,9.2,-,N/A,,Mostly Cloudy,270,2013-03-03 04:53:00